Wellsville, NY

7:41 PM EDT on October 14, 2019 (GMT -0400)
Wellsville Municipal-Tarantine

Weather History for KELZ - September, 2019

Change the Weather History Date:

Tuesday, September 17, 2019

  Actual Average (WUND) Record (WUND)
Temperature  
Mean Temperature 56 °F -  
Max Temperature 69 °F - - (-1)
Min Temperature 45 °F - - (-1)
Degree Days  
Heating Degree Days 8    
Growing Degree Days 6 (Base 50)    
Moisture  
Dew Point 48 °F    
Average Humidity 81    
Maximum Humidity 100    
Minimum Humidity 42    
Precipitation  
Precipitation 0.00 in - - ()
Sea Level Pressure  
Sea Level Pressure 30.22 in    
Wind  
Wind Speed 3 mph ()    
Max Wind Speed 9 mph    
Max Gust Speed -    
Visibility 7.5 miles    
Events Fog    
Averages and records for this station are not official NWS values.
T = Trace of Precipitation, MM = Missing Value Source: Averaged Metar Reports

Daily Weather History Graph

Daily Weather History Graph

Search for Another Location

Airport or City:

Astronomy

Sep. 17, 2019 Rise Set
Actual Time 6:53 AM EDT 7:18 PM EDT
Civil Twilight 6:25 AM EDT 7:46 PM EDT
Nautical Twilight 5:52 AM EDT 8:19 PM EDT
Astronomical Twilight 5:18 AM EDT 8:53 PM EDT
Moon 9:17 PM EDT (9/17) 9:59 AM EDT (9/17)
Length of Visible Light 13h 20m
Length of Day
12h 24m
Waning Gibbous, 89% of the Moon is Illuminated
Sep 17
Waning Gibbous
Sep 21
Last Quarter
Sep 28
New
Oct 5
First Quarter
Oct 13
Full

Hourly Weather History & Observations

Time (EDT) Temp. Dew Point Humidity Pressure Visibility Wind Dir Wind Speed Gust Speed Precip Events Conditions
12:09 AM 55.0 °F 55.0 °F 100% 30.18 in 1.8 mi Calm Calm - N/A   Partly Cloudy
12:17 AM 54.0 °F 54.0 °F 100% 30.18 in 0.5 mi East 5.8 mph - N/A Fog Fog
12:21 AM 54.0 °F 54.0 °F 100% 30.18 in 1.8 mi East 6.9 mph - N/A   Partly Cloudy
12:28 AM 54.0 °F 54.0 °F 100% 30.18 in 10.0 mi East 6.9 mph - N/A   Partly Cloudy
12:56 AM 54.0 °F 52.0 °F 93% 30.17 in 10.0 mi East 5.8 mph - N/A   Clear
2:56 AM 51.1 °F 51.1 °F 100% 30.19 in 10.0 mi Calm Calm - N/A   Scattered Clouds
3:56 AM 48.9 °F 48.0 °F 97% 30.18 in 10.0 mi Calm Calm - N/A   Clear
4:12 AM 48.9 °F 48.0 °F 97% 30.18 in 1.2 mi Calm Calm - N/A   Partly Cloudy
4:15 AM 48.9 °F 48.0 °F 97% 30.18 in 0.8 mi ESE 3.5 mph - N/A   Mist
4:25 AM 48.0 °F 48.0 °F 100% 30.18 in 0.2 mi ESE 3.5 mph - N/A Fog Fog
4:41 AM 46.9 °F 46.9 °F 100% 30.18 in 1.0 mi East 4.6 mph - N/A   Mist
4:44 AM 46.9 °F 46.9 °F 100% 30.18 in 3.0 mi East 4.6 mph - N/A   Scattered Clouds
4:56 AM 46.0 °F 46.0 °F 100% 30.19 in 10.0 mi Calm Calm - N/A   Clear
5:56 AM 48.0 °F 45.0 °F 89% 30.20 in 10.0 mi Calm Calm - N/A   Clear
6:56 AM 46.9 °F 45.0 °F 93% 30.23 in 10.0 mi Calm Calm - N/A   Clear
7:07 AM 46.0 °F 45.0 °F 96% 30.22 in 0.8 mi Calm Calm - N/A   Clear
7:18 AM 45.0 °F 45.0 °F 100% 30.23 in 2.0 mi Calm Calm - N/A   Clear
7:25 AM 46.0 °F 46.0 °F 100% 30.23 in 10.0 mi Calm Calm - N/A   Clear
7:56 AM 48.9 °F 48.0 °F 97% 30.24 in 10.0 mi Calm Calm - N/A   Clear
8:56 AM 53.1 °F 48.0 °F 83% 30.25 in 10.0 mi Calm Calm - N/A   Clear
9:56 AM 57.0 °F 48.0 °F 72% 30.26 in 10.0 mi SE 3.5 mph - N/A   Clear
10:56 AM 61.0 °F 46.9 °F 60% 30.26 in 10.0 mi East 5.8 mph - N/A   Clear
11:56 AM 64.9 °F 45.0 °F 48% 30.25 in 10.0 mi ESE 9.2 mph - N/A   Clear
12:56 PM 66.9 °F 45.0 °F 45% 30.25 in 10.0 mi Variable 6.9 mph - N/A   Clear
1:56 PM 68.0 °F 44.1 °F 42% 30.23 in 10.0 mi Variable 3.5 mph - N/A   Clear
2:56 PM 68.0 °F 46.9 °F 47% 30.22 in 10.0 mi Variable 4.6 mph - N/A   Clear
3:56 PM 68.0 °F 46.9 °F 47% 30.22 in 10.0 mi NE 6.9 mph - N/A   Clear
4:56 PM 68.0 °F 50.0 °F 52% 30.22 in 10.0 mi ENE 4.6 mph - N/A   Clear
5:56 PM 66.0 °F 48.0 °F 52% 30.23 in 10.0 mi NE 5.8 mph - N/A   Clear
6:56 PM 62.1 °F 48.9 °F 62% 30.23 in 10.0 mi NNE 9.2 mph - N/A   Clear
7:56 PM 59.0 °F 48.9 °F 69% 30.25 in 10.0 mi NNE 3.5 mph - N/A   Clear
8:56 PM 57.0 °F 46.9 °F 69% 30.25 in 10.0 mi ENE 9.2 mph - N/A   Clear
9:56 PM 55.9 °F 45.0 °F 67% 30.26 in 10.0 mi East 4.6 mph - N/A   Clear
10:56 PM 55.0 °F 45.0 °F 69% 30.26 in 10.0 mi NNE 3.5 mph - N/A   Clear
11:56 PM 50.0 °F 48.0 °F 93% 30.26 in 10.0 mi Calm Calm - N/A   Clear